Tracking 19720 objects as of 25-Jun-2019
HD Live streaming from Space Station
objects crossing your sky now

COSMOS 2287 (GLONASS)

Track COSMOS 2287 (GLONASS) now!
COSMOS 2287 (GLONASS) is classified as:


NORAD ID: 23203
Int'l Code: 1994-050A
Perigee: 19,114.6 km
Apogee: 19,159.4 km
Inclination: 65.9 °
Period: 675.7 minutes
Semi major axis: 25508 km
RCS: 3.2588 m2 (large)
Launch date: August 11, 1994
Source: Commonwealth of Independent States (former USSR) (CIS)
Launch site: TYURATAM MISSILE AND SPACE COMPLEX (TTMTR)
aabbcc
Your satellite tracking list
Your tracking list is empty




NASA's NSSDC Master Catalog

Two Line Element Set (TLE):
1 23203U 94050A   19175.72636559 -.00000033  00000-0  00000+0 0  9990
2 23203  65.9073 285.6296 0008788  51.3586  30.1389  2.13102139193569
Source of the keplerian elements: AFSPC